timestamp,wind_dir_avg,wind_spd_avg,wind_spd_max_dir,wind_spd_gust,battery_voltage,lat,long
2022-03-24 00:04:01+00:00,341.0,5.03,339.0,5.85,12.41,47.59359,-54.27349
2022-03-24 00:14:01+00:00,355.0,4.62,335.0,5.44,12.41,47.59359,-54.27349
2022-03-24 00:24:01+00:00,353.0,4.61,339.0,5.76,12.41,47.59359,-54.27349
2022-03-24 00:34:01+00:00,358.0,6.24,2.0,7.1,12.41,47.59359,-54.27349
2022-03-24 00:44:01+00:00,1.0,6.62,5.0,7.41,12.41,47.59359,-54.27349
2022-03-24 00:54:01+00:00,354.0,5.65,341.0,6.34,12.41,47.59359,-54.27349
2022-03-24 01:04:01+00:00,350.0,4.6,338.0,5.93,12.41,47.59359,-54.27349
2022-03-24 01:14:00+00:00,342.0,5.98,341.0,6.84,12.33,47.59359,-54.27349
2022-03-24 01:24:00+00:00,345.0,6.74,343.0,7.79,12.33,47.59359,-54.27349
2022-03-24 01:34:00+00:00,351.0,6.42,358.0,7.71,12.33,47.59359,-54.27349
2022-03-24 01:44:00+00:00,0.0,6.28,355.0,6.9,12.33,47.59359,-54.27349
2022-03-24 01:54:00+00:00,0.0,6.3,4.0,7.28,12.33,47.59359,-54.27349
2022-03-24 02:04:00+00:00,356.0,7.07,346.0,8.48,12.33,47.59359,-54.27349
2022-03-24 02:14:01+00:00,358.0,5.7,352.0,6.62,12.33,47.59359,-54.27349
2022-03-24 02:24:01+00:00,359.0,5.62,357.0,6.79,12.33,47.59359,-54.27349
2022-03-24 02:34:01+00:00,353.0,5.54,342.0,6.47,12.33,47.59359,-54.27349
2022-03-24 02:44:01+00:00,359.0,8.09,11.0,9.34,12.33,47.59359,-54.27349
2022-03-24 02:54:01+00:00,357.0,9.79,349.0,11.06,12.33,47.59359,-54.27349
2022-03-24 03:04:01+00:00,353.0,9.32,347.0,10.23,12.33,47.59359,-54.27349
2022-03-24 03:14:00+00:00,352.0,7.5,1.0,8.77,12.33,47.59359,-54.27349
2022-03-24 03:24:00+00:00,357.0,9.02,1.0,10.26,12.33,47.59359,-54.27349
2022-03-24 03:34:00+00:00,359.0,9.3,0.0,10.56,12.33,47.59359,-54.27349
2022-03-24 03:44:00+00:00,1.0,8.41,7.0,9.9,12.33,47.59359,-54.27349
2022-03-24 03:54:00+00:00,350.0,8.37,352.0,9.8,12.33,47.59359,-54.27349
2022-03-24 04:04:00+00:00,347.0,7.32,346.0,8.63,12.33,47.59359,-54.27349
2022-03-24 04:14:00+00:00,347.0,7.62,350.0,9.03,12.25,47.59359,-54.27349
2022-03-24 04:24:00+00:00,349.0,7.87,351.0,10.09,12.25,47.59359,-54.27349
2022-03-24 04:34:00+00:00,359.0,7.4,355.0,8.67,12.25,47.59359,-54.27349
2022-03-24 04:44:00+00:00,352.0,8.27,346.0,10.18,12.25,47.59359,-54.27349
2022-03-24 04:54:00+00:00,354.0,9.36,347.0,10.69,12.25,47.59359,-54.27349
2022-03-24 05:04:00+00:00,357.0,9.84,3.0,11.05,12.25,47.59359,-54.27349
2022-03-24 05:14:00+00:00,356.0,8.17,357.0,9.94,12.25,47.59359,-54.27349
2022-03-24 05:24:00+00:00,352.0,7.77,1.0,8.87,12.25,47.59359,-54.27349
2022-03-24 05:34:00+00:00,356.0,9.42,359.0,10.56,12.25,47.59359,-54.27349
2022-03-24 05:44:00+00:00,357.0,8.6,359.0,10.42,12.25,47.59359,-54.27349
2022-03-24 05:54:00+00:00,353.0,10.31,353.0,11.37,12.25,47.59359,-54.27349
2022-03-24 06:04:00+00:00,358.0,9.25,355.0,11.21,12.25,47.59359,-54.27349
2022-03-24 06:14:00+00:00,359.0,10.3,3.0,11.47,12.25,47.59359,-54.27349
2022-03-24 06:24:00+00:00,358.0,9.97,356.0,12.08,12.25,47.59359,-54.27349
2022-03-24 06:34:00+00:00,355.0,9.55,348.0,10.78,12.25,47.59359,-54.27349
2022-03-24 06:44:00+00:00,355.0,10.19,353.0,12.15,12.25,47.59359,-54.27349
2022-03-24 06:54:00+00:00,359.0,10.65,15.0,12.22,12.25,47.59359,-54.27349
2022-03-24 07:04:00+00:00,357.0,12.91,0.0,14.41,12.25,47.59359,-54.27349
2022-03-24 07:14:01+00:00,355.0,14.28,354.0,15.78,12.25,47.59359,-54.27349
2022-03-24 07:24:01+00:00,355.0,13.25,358.0,14.83,12.25,47.59359,-54.27349
2022-03-24 07:34:01+00:00,355.0,13.51,358.0,16.21,12.25,47.59359,-54.27349
2022-03-24 07:44:01+00:00,357.0,13.12,359.0,14.72,12.25,47.59359,-54.27349
2022-03-24 07:54:01+00:00,354.0,11.01,2.0,13.45,12.25,47.59359,-54.27349
2022-03-24 08:04:01+00:00,358.0,10.71,357.0,12.86,12.25,47.59359,-54.27349
2022-03-24 08:14:01+00:00,353.0,10.92,354.0,13.07,12.17,47.59359,-54.27349
2022-03-24 08:24:01+00:00,359.0,11.06,0.0,13.56,12.17,47.59359,-54.27349
2022-03-24 08:34:01+00:00,356.0,10.3,0.0,12.01,12.17,47.59359,-54.27349
2022-03-24 08:44:01+00:00,355.0,10.76,349.0,13.22,12.17,47.59359,-54.27349
2022-03-24 08:54:01+00:00,357.0,12.24,359.0,13.64,12.17,47.59359,-54.27349
2022-03-24 09:04:01+00:00,357.0,11.14,0.0,12.67,12.17,47.59359,-54.27349
2022-03-24 09:14:00+00:00,4.0,10.01,5.0,12.76,12.17,47.59359,-54.27349
2022-03-24 09:24:00+00:00,2.0,9.12,355.0,10.42,12.17,47.59359,-54.27349
2022-03-24 09:34:00+00:00,358.0,9.64,359.0,11.55,12.17,47.59359,-54.27349
2022-03-24 09:44:00+00:00,0.0,8.73,5.0,10.59,12.17,47.59359,-54.27349
2022-03-24 09:54:00+00:00,359.0,10.33,0.0,12.38,12.17,47.59359,-54.27349
2022-03-24 10:04:00+00:00,358.0,11.25,1.0,12.52,12.17,47.59359,-54.27349
2022-03-24 10:14:00+00:00,2.0,11.34,358.0,12.99,12.25,47.59359,-54.27349
2022-03-24 10:24:00+00:00,1.0,12.32,354.0,14.63,12.25,47.59359,-54.27349
2022-03-24 10:34:00+00:00,0.0,10.05,5.0,11.15,12.25,47.59359,-54.27349
2022-03-24 10:44:00+00:00,359.0,10.4,3.0,11.49,12.25,47.59359,-54.27349
2022-03-24 10:54:00+00:00,1.0,12.37,357.0,14.05,12.25,47.59359,-54.27349
2022-03-24 11:04:00+00:00,3.0,12.2,6.0,14.37,12.25,47.59359,-54.27349
2022-03-24 11:14:00+00:00,2.0,11.91,1.0,13.42,13.84,47.59359,-54.27349
2022-03-24 11:24:00+00:00,9.0,9.09,358.0,10.26,13.84,47.59359,-54.27349
2022-03-24 11:34:00+00:00,10.0,9.15,7.0,11.79,13.84,47.59359,-54.27349
2022-03-24 11:44:00+00:00,355.0,11.01,3.0,14.04,13.84,47.59359,-54.27349
2022-03-24 11:54:00+00:00,358.0,12.0,325.0,15.46,13.84,47.59359,-54.27349
2022-03-24 12:04:00+00:00,7.0,10.97,10.0,13.16,13.84,47.59359,-54.27349
2022-03-24 12:14:01+00:00,7.0,8.55,0.0,9.91,13.68,47.59359,-54.27349
2022-03-24 12:24:01+00:00,2.0,9.36,355.0,11.24,13.68,47.59359,-54.27349
2022-03-24 12:34:01+00:00,2.0,11.14,8.0,13.09,13.68,47.59359,-54.27349
2022-03-24 12:44:01+00:00,351.0,10.93,349.0,12.62,13.68,47.59359,-54.27349
2022-03-24 12:54:01+00:00,356.0,10.13,349.0,12.22,13.68,47.59359,-54.27349
2022-03-24 13:04:01+00:00,1.0,10.58,353.0,12.41,13.68,47.59359,-54.27349
2022-03-24 13:14:00+00:00,1.0,11.51,4.0,14.98,13.68,47.59359,-54.27349
2022-03-24 13:24:00+00:00,26.0,14.56,32.0,17.92,13.68,47.59359,-54.27349
2022-03-24 13:34:00+00:00,4.0,11.1,23.0,13.97,13.68,47.59359,-54.27349
2022-03-24 13:44:00+00:00,355.0,11.5,350.0,13.01,13.68,47.59359,-54.27349
2022-03-24 13:54:00+00:00,355.0,10.86,11.0,12.92,13.68,47.59359,-54.27349
2022-03-24 14:04:00+00:00,8.0,12.93,353.0,14.83,13.68,47.59359,-54.27349
2022-03-24 15:14:00+00:00,12.0,14.5,14.0,16.63,13.68,47.59359,-54.27349
2022-03-24 15:24:00+00:00,7.0,11.95,34.0,15.16,13.68,47.59359,-54.27349
2022-03-24 15:34:00+00:00,353.0,12.82,351.0,15.02,13.68,47.59359,-54.27349
2022-03-24 15:44:00+00:00,352.0,14.7,353.0,17.17,13.68,47.59359,-54.27349
2022-03-24 15:54:00+00:00,13.0,11.41,22.0,16.0,13.68,47.59359,-54.27349
2022-03-24 16:04:00+00:00,358.0,13.55,15.0,16.39,13.68,47.59359,-54.27349
2022-03-24 16:14:00+00:00,356.0,12.91,354.0,15.08,13.6,47.59359,-54.27349
2022-03-24 16:24:00+00:00,356.0,11.34,359.0,13.31,13.6,47.59359,-54.27349
2022-03-24 16:34:00+00:00,6.0,12.12,5.0,13.81,13.6,47.59359,-54.27349
2022-03-24 16:44:00+00:00,1.0,13.05,358.0,15.18,13.6,47.59359,-54.27349
2022-03-24 16:54:00+00:00,350.0,9.82,348.0,11.99,13.6,47.59359,-54.27349
2022-03-24 17:04:00+00:00,2.0,11.69,5.0,13.65,13.6,47.59359,-54.27349
2022-03-24 17:14:00+00:00,359.0,12.08,358.0,13.51,13.76,47.59359,-54.27349
2022-03-24 17:24:00+00:00,6.0,11.19,9.0,12.8,13.76,47.59359,-54.27349
2022-03-24 17:34:00+00:00,353.0,12.64,350.0,15.41,13.76,47.59359,-54.27349
2022-03-24 17:44:00+00:00,353.0,10.87,3.0,13.71,13.76,47.59359,-54.27349
2022-03-24 17:54:00+00:00,350.0,10.27,328.0,12.39,13.76,47.59359,-54.27349
2022-03-24 18:04:00+00:00,341.0,13.4,328.0,16.19,13.76,47.59359,-54.27349
2022-03-24 18:14:01+00:00,2.0,11.57,3.0,13.12,13.76,47.59359,-54.27349
2022-03-24 18:24:01+00:00,350.0,12.07,0.0,14.04,13.76,47.59359,-54.27349
2022-03-24 18:34:01+00:00,358.0,13.93,356.0,16.08,13.76,47.59359,-54.27349
2022-03-24 18:44:01+00:00,354.0,12.59,354.0,14.46,13.76,47.59359,-54.27349
2022-03-24 18:54:01+00:00,356.0,13.22,357.0,17.04,13.76,47.59359,-54.27349
2022-03-24 19:04:01+00:00,2.0,10.91,358.0,14.08,13.76,47.59359,-54.27349
2022-03-24 19:14:01+00:00,342.0,12.31,332.0,16.55,13.68,47.59359,-54.27349
2022-03-24 19:24:01+00:00,0.0,10.99,355.0,12.32,13.68,47.59359,-54.27349
2022-03-24 19:34:01+00:00,355.0,13.77,351.0,15.94,13.68,47.59359,-54.27349
2022-03-24 19:44:01+00:00,352.0,12.65,345.0,14.72,13.68,47.59359,-54.27349
2022-03-24 19:54:01+00:00,359.0,11.79,3.0,13.89,13.68,47.59359,-54.27349
2022-03-24 20:04:01+00:00,346.0,12.16,348.0,13.6,13.68,47.59359,-54.27349
2022-03-24 20:14:01+00:00,349.0,14.09,349.0,15.78,13.6,47.59359,-54.27349
2022-03-24 20:24:01+00:00,349.0,11.79,346.0,13.04,13.6,47.59359,-54.27349
2022-03-24 20:34:01+00:00,5.0,13.56,9.0,15.33,13.6,47.59359,-54.27349
2022-03-24 20:44:01+00:00,354.0,11.67,355.0,12.83,13.6,47.59359,-54.27349
2022-03-24 20:54:01+00:00,358.0,12.13,359.0,15.35,13.6,47.59359,-54.27349
2022-03-24 21:04:01+00:00,357.0,12.55,356.0,14.59,13.6,47.59359,-54.27349
2022-03-24 21:14:01+00:00,1.0,12.59,3.0,14.69,13.37,47.59359,-54.27349
2022-03-24 21:24:01+00:00,354.0,12.71,352.0,14.61,13.37,47.59359,-54.27349
2022-03-24 21:34:01+00:00,337.0,10.64,340.0,11.44,13.37,47.59359,-54.27349
2022-03-24 21:44:01+00:00,5.0,9.99,17.0,11.79,13.37,47.59359,-54.27349
2022-03-24 21:54:01+00:00,3.0,10.78,8.0,12.57,13.37,47.59359,-54.27349
2022-03-24 22:04:01+00:00,3.0,11.05,2.0,12.45,13.37,47.59359,-54.27349
2022-03-24 22:14:01+00:00,1.0,10.32,2.0,12.21,12.73,47.59359,-54.27349
2022-03-24 22:24:01+00:00,5.0,9.55,7.0,11.21,12.73,47.59359,-54.27349
2022-03-24 22:34:01+00:00,346.0,9.47,348.0,11.53,12.73,47.59359,-54.27349
2022-03-24 22:44:01+00:00,354.0,6.58,358.0,7.87,12.73,47.59359,-54.27349
2022-03-24 22:54:01+00:00,352.0,7.42,350.0,9.85,12.73,47.59359,-54.27349
2022-03-24 23:04:01+00:00,358.0,9.81,358.0,11.21,12.73,47.59359,-54.27349
2022-03-24 23:14:00+00:00,353.0,9.46,356.0,10.31,12.49,47.59359,-54.27349
2022-03-24 23:24:00+00:00,347.0,7.13,0.0,9.72,12.49,47.59359,-54.27349
2022-03-24 23:34:00+00:00,350.0,10.17,345.0,11.79,12.49,47.59359,-54.27349
2022-03-24 23:44:00+00:00,339.0,10.89,332.0,13.34,12.49,47.59359,-54.27349
2022-03-24 23:54:00+00:00,331.0,10.06,328.0,12.05,12.49,47.59359,-54.27349
